Temp
-25 -24 -24 -24 -24 -24 -24 -24 -24 -24 -24 -24 -23 -23 -23 -23 -23 -23 -23 -23 -23 -23 -22 -22 -22 -22 -22 -22 -22 -22 -22 -21 -21 -21 -22 -22 -22 -22 -22 -22 -22 -21
-25 -25 -25 -25 -24 -24 -24 -24 -24 -24 -24 -24 -24 -24 -24 -24 -24 -24 -23 -23 -23 -23 -23 -23 -23 -23 -23 -23 -23 -22 -22 -22 -22 -22 -22 -22 -22 -22 -22 -22 -22 -22
-25 -25 -25 -25 -25 -25 -25 -25 -24 -24 -24 -24 -24 -24 -24 -24 -24 -24 -24 -24 -24 -23 -23 -23 -24 -24 -24 -23 -23 -23 -23 -23 -22 -22 -22 -22 -22 -22 -22 -22 -22 -22
-25 -25 -26 -26 -25 -25 -25 -25 -25 -25 -25 -25 -25 -25 -25 -25 -25 -24 -24 -24 -24 -24 -24 -24 -24 -24 -24 -24 -23 -23 -23 -23 -23 -23 -23 -23 -23 -22 -22 -22 -22 -22
-26 -26 -26 -26 -26 -26 -25 -25 -25 -25 -25 -25 -25 -25 -25 -25 -25 -25 -25 -25 -25 -24 -24 -24 -24 -24 -24 -24 -23 -23 -23 -23 -23 -23 -23 -23 -23 -23 -23 -23 -23 -22
-26 -26 -26 -26 -26 -26 -26 -26 -26 -26 -25 -25 -25 -25 -25 -25 -25 -25 -25 -25 -25 -25 -25 -25 -24 -24 -24 -24 -24 -24 -24 -24 -24 -24 -23 -23 -23 -23 -23 -23 -23 -23
-26 -26 -26 -26 -26 -26 -26 -26 -26 -26 -26 -26 -26 -26 -25 -25 -25 -25 -25 -25 -25 -25 -25 -25 -25 -25 -25 -25 -25 -24 -24 -24 -24 -24 -24 -24 -24 -24 -24 -24 -24 -24
-26 -26 -27 -27 -27 -27 -27 -27 -27 -26 -26 -26 -26 -26 -26 -26 -26 -26 -26 -25 -25 -25 -25 -25 -25 -25 -25 -25 -25 -25 -25 -25 -24 -24 -24 -24 -24 -24 -24 -24 -24 -24
-27 -27 -27 -27 -27 -27 -27 -27 -27 -27 -27 -27 -27 -27 -26 -26 -26 -26 -26 -26 -26 -26 -26 -26 -25 -25 -25 -25 -25 -25 -25 -25 -25 -25 -25 -25 -25 -25 -25 -25 -25 -25
-27 -27 -27 -27 -27 -27 -27 -27 -27 -27 -27 -27 -27 -27 -27 -27 -27 -26 -26 -26 -26 -26 -26 -26 -26 -26 -26 -26 -26 -26 -25 -25 -25 -25 -25 -25 -25 -25 -25 -25 -25 -25
-27 -27 -27 -27 -27 -27 -27 -27 -27 -27 -27 -27 -27 -27 -27 -27 -27 -27 -27 -27 -27 -27 -26 -26 -26 -26 -26 -26 -26 -26 -26 -26 -26 -26 -26 -26 -26 -26 -25 -25 -26 -26
-27 -27 -27 -27 -27 -27 -27 -27 -27 -27 -27 -27 -27 -27 -27 -27 -27 -27 -27 -27 -27 -27 -27 -27 -27 -27 -27 -26 -26 -26 -26 -26 -26 -26 -26 -26 -26 -26 -26 -26 -26 -26
-28 -28 -28 -28 -28 -28 -27 -27 -27 -27 -27 -27 -27 -27 -27 -27 -27 -27 -27 -27 -27 -27 -27 -27 -27 -27 -27 -27 -27 -27 -27 -27 -27 -27 -27 -27 -27 -27 -27 -26 -26 -26
-28 -28 -28 -28 -28 -28 -28 -28 -28 -28 -28 -28 -28 -28 -28 -27 -27 -27 -27 -27 -27 -27 -27 -27 -27 -27 -27 -27 -27 -27 -27 -27 -27 -27 -27 -27 -27 -27 -27 -27 -27 -27
-28 -28 -28 -28 -28 -28 -28 -28 -28 -28 -28 -28 -28 -28 -28 -28 -28 -28 -28 -28 -28 -28 -28 -28 -28 -28 -28 -28 -27 -27 -28 -28 -28 -28 -28 -28 -28 -28 -28 -28 -28 -28
-28 -28 -28 -28 -28 -28 -28 -28 -28 -28 -28 -28 -28 -28 -28 -28 -28 -28 -28 -28 -28 -28 -28 -28 -28 -28 -28 -28 -28 -28 -28 -28 -28 -28 -28 -28 -28 -28 -28 -28 -28 -28
-29 -29 -29 -29 -28 -28 -28 -28 -28 -28 -28 -28 -28 -28 -28 -28 -28 -28 -28 -28 -28 -28 -28 -28 -28 -28 -28 -28 -28 -28 -28 -28 -28 -28 -28 -28 -28 -28 -28 -28 -28 -28
-29 -29 -29 -29 -29 -29 -29 -29 -29 -29 -29 -29 -29 -29 -29 -29 -29 -29 -29 -29 -29 -29 -29 -29 -29 -29 -29 -29 -29 -28 -28 -28 -28 -28 -28 -29 -29 -29 -29 -29 -29 -29
-29 -29 -29 -29 -29 -29 -29 -29 -29 -29 -29 -29 -29 -29 -29 -29 -29 -29 -29 -29 -29 -29 -29 -29 -29 -29 -29 -29 -29 -29 -29 -29 -29 -29 -29 -29 -29 -29 -29 -29 -29 -29
-30 -30 -30 -30 -30 -30 -30 -30 -30 -30 -30 -30 -30 -30 -30 -30 -30 -30 -30 -30 -30 -30 -30 -30 -30 -30 -30 -30 -29 -29 -29 -29 -29 -29 -29 -29 -29 -29 -29 -29 -29 -29
-31 -31 -31 -31 -31 -31 -31 -31 -31 -30 -30 -30 -30 -30 -30 -30 -30 -30 -30 -30 -30 -30 -30 -30 -30 -30 -30 -30 -30 -30 -30 -30 -30 -30 -30 -30 -30 -30 -30 -30 -30 -29
-31 -31 -31 -31 -31 -31 -31 -31 -31 -31 -31 -31 -31 -31 -31 -31 -31 -31 -31 -31 -30 -30 -30 -30 -30 -31 -31 -31 -30 -30 -30 -30 -30 -30 -30 -30 -30 -30 -30 -30 -30 -30
-32 -32 -32 -32 -32 -32 -32 -32 -32 -31 -31 -31 -31 -31 -31 -31 -31 -31 -31 -31 -31 -31 -31 -31 -31 -31 -31 -31 -31 -31 -31 -31 -30 -30 -30 -30 -30 -30 -30 -30 -30 -30
-32 -32 -32 -32 -32 -32 -32 -32 -32 -32 -32 -32 -32 -32 -32 -32 -32 -31 -31 -31 -31 -31 -31 -31 -31 -31 -31 -31 -31 -31 -31 -31 -31 -31 -30 -30 -30 -30 -30 -31 -31 -31
-33 -33 -32 -32 -32 -32 -32 -32 -32 -32 -32 -32 -32 -32 -32 -32 -32 -32 -32 -32 -32 -31 -31 -31 -31 -31 -31 -31 -31 -31 -31 -31 -31 -30 -30 -30 -30 -30 -30 -30 -30 -31
-33 -33 -33 -33 -33 -33 -33 -33 -33 -32 -32 -32 -32 -32 -32 -32 -32 -32 -32 -32 -32 -32 -32 -32 -31 -31 -31 -31 -31 -31 -31 -31 -31 -31 -31 -31 -31 -30 -30 -30 -30 -30
Height
5538 5538 5539 5539 5540 5540 5541 5541 5542 5543 5544 5545 5546 5547 5549 5550 5551 5553 5554 5556 5558 5559 5561 5562 5564 5566 5569 5571 5572 5573 5573 5574 5575 5575 5576 5576 5577 5577 5578 5578 5579 5580
5531 5531 5532 5532 5533 5533 5534 5534 5535 5535 5536 5537 5538 5539 5541 5542 5543 5545 5546 5547 5549 5550 5552 5553 5555 5556 5558 5560 5562 5563 5564 5565 5566 5566 5566 5567 5568 5569 5569 5570 5570 5571
5524 5525 5525 5526 5526 5526 5527 5527 5528 5528 5529 5530 5531 5532 5533 5534 5535 5537 5538 5539 5541 5542 5543 5545 5547 5548 5550 5551 5552 5553 5554 5555 5556 5556 5557 5558 5559 5560 5561 5562 5562 5562
5518 5518 5518 5519 5519 5520 5520 5521 5521 5521 5522 5523 5524 5525 5525 5526 5527 5529 5530 5531 5532 5534 5535 5536 5538 5540 5541 5543 5543 5544 5545 5546 5547 5547 5548 5550 5551 5552 5552 5553 5554 5554
5511 5511 5511 5511 5512 5512 5513 5514 5514 5515 5515 5516 5517 5518 5518 5519 5520 5521 5522 5523 5524 5525 5527 5528 5529 5530 5532 5533 5534 5535 5536 5537 5538 5539 5540 5541 5542 5543 5543 5544 5544 5544
5504 5504 5504 5504 5504 5505 5505 5506 5507 5508 5508 5509 5510 5510 5511 5512 5513 5514 5514 5515 5516 5517 5518 5519 5520 5522 5523 5524 5525 5526 5526 5527 5528 5529 5530 5531 5532 5533 5534 5534 5534 5534
5497 5497 5497 5497 5497 5498 5498 5499 5499 5500 5501 5501 5502 5503 5503 5504 5505 5506 5507 5508 5508 5509 5510 5511 5512 5513 5514 5515 5516 5517 5518 5518 5518 5519 5520 5521 5522 5522 5523 5523 5524 5524
5490 5490 5490 5490 5491 5491 5491 5491 5492 5492 5493 5494 5494 5495 5496 5496 5497 5498 5499 5500 5500 5501 5502 5502 5503 5504 5505 5506 5506 5507 5508 5509 5509 5510 5510 5511 5511 5512 5513 5513 5513 5513
5483 5483 5483 5483 5483 5483 5483 5484 5484 5485 5485 5486 5486 5487 5488 5489 5489 5490 5491 5491 5492 5493 5494 5494 5495 5495 5496 5497 5497 5498 5499 5499 5500 5501 5501 5501 5501 5502 5503 5503 5503 5504
5476 5476 5476 5476 5476 5476 5476 5476 5477 5477 5478 5478 5479 5479 5480 5481 5481 5482 5482 5483 5484 5484 5485 5486 5486 5487 5487 5488 5488 5489 5490 5490 5491 5491 5491 5492 5492 5492 5493 5493 5493 5493
5469 5469 5469 5469 5469 5468 5469 5469 5469 5470 5470 5471 5471 5471 5472 5472 5473 5474 5474 5475 5475 5476 5476 5477 5477 5478 5478 5479 5479 5480 5480 5481 5481 5482 5482 5482 5483 5483 5483 5483 5483 5483
5461 5461 5461 5461 5461 5461 5461 5461 5462 5462 5463 5463 5464 5464 5464 5465 5465 5466 5466 5466 5467 5467 5468 5468 5468 5469 5469 5470 5470 5470 5471 5471 5472 5472 5472 5473 5473 5473 5473 5474 5473 5474
5453 5454 5454 5454 5454 5454 5454 5454 5455 5455 5455 5456 5456 5456 5457 5457 5457 5458 5458 5458 5458 5459 5459 5459 5460 5460 5460 5461 5461 5461 5462 5462 5462 5463 5463 5463 5463 5463 5464 5464 5464 5464
5445 5446 5446 5446 5446 5446 5446 5447 5447 5447 5448 5448 5448 5448 5449 5449 5449 5450 5450 5450 5450 5450 5450 5451 5451 5451 5451 5452 5452 5452 5453 5453 5453 5453 5454 5454 5454 5454 5454 5454 5454 5454
5437 5438 5438 5438 5438 5438 5438 5439 5439 5439 5439 5440 5440 5440 5440 5440 5441 5441 5441 5441 5441 5442 5442 5442 5442 5442 5442 5442 5443 5443 5443 5443 5443 5444 5444 5444 5444 5444 5443 5443 5443 5443
5429 5429 5429 5429 5429 5430 5430 5430 5430 5430 5430 5430 5431 5431 5431 5431 5431 5432 5432 5432 5432 5432 5432 5433 5433 5432 5432 5433 5433 5433 5434 5434 5434 5434 5435 5435 5434 5433 5432 5432 5433 5433
5420 5420 5420 5420 5420 5420 5420 5421 5421 5421 5421 5421 5421 5421 5421 5421 5421 5421 5422 5422 5422 5422 5421 5422 5422 5423 5422 5422 5423 5423 5424 5424 5424 5424 5424 5425 5424 5422 5421 5421 5422 5423
5410 5410 5411 5410 5410 5410 5410 5411 5411 5411 5411 5411 5411 5411 5411 5411 5411 5411 5411 5411 5411 5411 5410 5410 5411 5411 5411 5411 5411 5412 5412 5413 5414 5415 5415 5414 5412 5410 5410 5411 5411 5411
5401 5401 5401 5400 5400 5400 5400 5400 5400 5400 5400 5400 5400 5400 5400 5400 5400 5400 5400 5400 5400 5400 5399 5398 5398 5399 5399 5399 5399 5399 5399 5401 5403 5404 5404 5402 5401 5400 5399 5399 5399 5399
5391 5391 5391 5390 5390 5390 5390 5390 5390 5389 5389 5389 5388 5388 5388 5388 5388 5388 5388 5387 5388 5388 5387 5387 5386 5386 5386 5386 5385 5385 5385 5387 5390 5392 5391 5390 5389 5389 5388 5387 5387 5388
5381 5381 5380 5380 5380 5380 5379 5379 5379 5378 5377 5377 5377 5376 5376 5376 5376 5375 5375 5374 5375 5375 5375 5374 5373 5373 5373 5373 5372 5371 5371 5373 5376 5377 5377 5377 5377 5377 5375 5375 5375 5376
5371 5371 5370 5370 5369 5369 5368 5368 5367 5366 5365 5365 5365 5364 5363 5363 5363 5362 5362 5361 5361 5361 5362 5361 5360 5359 5359 5359 5358 5357 5357 5359 5361 5361 5362 5363 5364 5364 5362 5361 5362 5363
5361 5360 5359 5359 5358 5357 5357 5356 5355 5354 5353 5352 5352 5352 5351 5350 5350 5349 5348 5348 5348 5348 5348 5348 5347 5345 5345 5345 5343 5342 5342 5344 5346 5346 5347 5348 5349 5350 5349 5348 5347 5348
5349 5348 5348 5347 5346 5345 5345 5344 5343 5341 5340 5340 5339 5339 5338 5337 5336 5336 5335 5334 5334 5334 5334 5334 5333 5332 5332 5331 5329 5327 5327 5328 5330 5331 5332 5334 5335 5335 5334 5333 5332 5332
5338 5337 5336 5335 5334 5333 5332 5331 5330 5328 5327 5327 5326 5326 5325 5324 5323 5322 5321 5320 5319 5319 5319 5319 5318 5318 5318 5317 5315 5313 5311 5312 5313 5315 5317 5318 5318 5318 5318 5317 5318 5318
5326 5325 5324 5323 5322 5321 5319 5318 5316 5316 5315 5314 5313 5312 5311 5310 5309 5308 5308 5306 5305 5304 5304 5303 5303 5303 5303 5302 5300 5298 5296 5295 5298 5300 5301 5300 5300 5301 5301 5302 5302 5302
Wind_Speed
48 48 48 48 49 50 52 53 55 56 57 58 58 58 58 59 60 62 65 67 67 67 67 70 73 73 73 74 75 76 75 75 76 75 75 74 72 71 72 74 76 78
48 48 48 48 48 49 50 51 52 54 55 56 57 57 57 57 58 59 61 63 66 68 68 69 70 70 71 72 74 75 77 77 77 77 78 77 74 72 72 72 73 74
47 48 48 48 48 49 49 50 50 51 52 53 54 55 56 56 57 57 58 59 61 64 66 69 69 67 67 68 70 73 75 76 75 74 74 75 74 74 74 73 72 72
46 48 49 49 50 50 50 50 50 50 50 51 51 52 53 54 55 56 57 58 59 60 62 64 67 68 67 66 66 68 70 73 74 74 74 74 74 76 77 76 75 74
46 47 49 50 51 51 52 52 52 52 51 51 51 51 51 51 52 54 55 56 57 58 59 61 62 65 68 70 71 69 68 68 71 73 74 75 75 77 79 79 78 76
47 47 48 50 51 51 52 52 53 53 53 53 53 53 53 52 52 53 53 54 55 57 58 59 61 62 64 68 71 74 74 73 73 74 75 75 76 77 79 79 78 75
47 47 48 49 50 51 52 52 52 53 53 54 54 55 55 55 55 55 55 55 56 57 57 58 60 61 63 64 67 70 73 76 78 78 78 78 78 78 78 78 77 75
46 47 47 47 48 49 50 51 52 52 53 53 54 55 55 56 56 56 56 56 57 57 58 59 60 61 63 64 65 67 68 71 74 77 79 80 80 80 80 80 79 78
47 47 47 47 47 48 49 49 50 51 51 52 53 53 54 55 56 56 56 57 57 57 58 59 60 61 62 63 65 66 67 69 70 73 75 77 79 79 79 80 80 80
48 47 48 48 48 48 48 49 49 50 50 51 51 52 53 54 55 56 57 58 58 59 59 59 60 61 62 62 63 64 65 67 68 69 71 73 75 77 77 77 77 78
49 48 48 48 49 49 49 49 49 49 49 50 50 51 52 53 53 54 56 57 58 59 60 61 61 62 63 63 64 64 65 65 66 67 68 69 70 72 73 74 74 74
50 50 50 50 50 50 50 50 50 50 50 50 50 51 51 52 53 53 54 55 56 57 58 59 60 61 62 63 64 65 65 66 67 67 68 68 69 70 71 72 73 73
52 52 52 52 52 52 52 52 52 52 52 52 52 53 53 54 54 54 55 55 55 56 57 58 58 59 60 61 62 63 64 65 66 67 67 68 69 70 70 71 72 73
55 55 54 54 54 55 55 55 55 55 55 55 55 56 56 57 57 57 57 58 58 59 59 59 60 60 61 61 62 63 63 64 65 65 66 67 68 68 69 70 71 72
59 58 58 57 57 57 58 58 58 59 59 59 59 59 60 60 60 60 60 61 61 62 62 62 63 63 64 64 65 65 66 66 67 67 67 68 68 69 70 70 70 71
62 62 62 61 61 61 61 61 61 62 62 62 63 63 63 63 63 63 63 64 64 64 65 65 66 66 67 67 68 68 69 69 70 70 71 71 72 72 73 73 73 73
65 65 65 65 65 65 65 65 65 65 65 66 66 66 66 66 66 67 67 67 67 68 69 69 69 70 70 71 71 72 72 72 73 73 73 74 75 76 77 77 77 77
67 68 68 68 68 69 69 69 69 69 69 69 69 69 69 69 69 70 70 71 71 71 72 73 73 74 74 75 75 76 76 76 76 76 76 77 78 79 80 80 80 81
68 69 69 70 70 71 71 71 72 72 72 72 72 72 72 72 73 73 73 74 74 75 75 76 77 77 78 79 79 80 80 80 80 79 80 80 81 82 82 83 83 83
66 67 68 69 70 71 72 72 73 73 74 74 75 75 75 75 75 76 76 76 77 77 78 79 79 80 81 82 82 83 83 84 83 83 83 84 84 84 85 86 86 86
66 67 68 69 69 70 71 72 73 74 75 76 76 77 77 78 78 79 79 80 80 80 81 81 82 83 83 84 85 86 86 86 86 86 86 86 86 87 87 88 88 89
68 69 70 71 72 72 73 74 75 76 77 78 78 79 80 81 81 82 83 83 84 84 84 85 85 86 86 86 87 88 89 89 89 89 89 89 89 89 90 91 91 91
71 71 71 72 73 74 74 75 76 77 78 79 80 81 82 83 83 84 85 86 86 87 88 88 89 89 89 90 91 91 92 92 92 92 92 92 92 92 93 94 94 94
73 73 73 74 74 75 76 77 78 78 79 80 81 81 82 83 84 85 86 87 88 89 89 90 91 92 92 93 94 95 96 96 96 96 95 95 95 96 96 97 97 98
75 75 76 77 77 78 79 79 80 81 82 82 83 84 84 85 86 87 88 89 90 91 91 92 93 94 95 95 96 98 99 100 100 99 99 99 100 100 100 101 101 101
76 77 78 78 79 80 81 82 83 84 85 85 86 87 88 89 90 91 92 93 94 94 95 96 97 97 98 98 99 100 102 103 103 102 102 103 103 104 104 104 104 104
Wind_Direction
261 259 258 257 257 257 258 258 258 258 257 257 256 255 254 252 251 250 248 247 246 247 249 250 251 250 249 247 245 246 246 246 247 249 251 253 256 258 258 257 257 257
260 259 258 257 256 256 257 258 259 259 259 258 258 257 256 254 253 252 251 249 248 246 246 248 249 251 251 250 248 247 247 248 248 250 251 251 253 254 255 256 256 256
260 259 258 257 256 255 255 256 257 258 259 259 259 259 258 257 255 254 253 252 251 249 247 247 247 248 250 251 252 250 249 249 249 249 250 250 251 252 253 254 254 254
261 260 258 258 256 256 255 255 255 256 257 258 259 259 259 259 258 256 255 254 252 251 250 249 247 246 245 246 248 250 251 251 251 251 252 252 251 252 253 254 254 253
261 260 260 259 258 257 257 256 255 255 255 255 255 256 257 257 257 257 257 256 255 253 252 251 250 248 246 244 244 245 247 248 248 249 251 252 252 252 252 253 254 253
260 260 260 260 259 259 258 258 257 256 255 255 254 254 254 254 254 254 255 255 255 255 254 253 252 251 250 247 246 246 246 247 247 247 248 249 250 251 252 253 254 254
261 261 260 259 259 259 259 259 258 257 256 256 255 255 254 253 253 252 253 253 253 253 254 254 253 253 252 251 250 249 248 249 249 250 250 249 250 251 251 252 253 254
262 262 261 260 259 259 259 259 259 258 258 257 256 256 255 255 254 254 253 253 252 252 252 252 252 252 252 252 252 251 251 250 250 251 252 253 253 253 254 254 255 255
261 261 261 261 260 259 258 258 258 258 257 257 257 256 256 256 256 255 255 254 253 253 252 252 251 251 252 252 252 252 252 252 252 251 252 253 255 256 256 257 257 258
261 260 260 260 260 260 259 258 258 257 257 257 257 257 256 256 256 256 255 255 255 255 254 254 253 253 253 253 253 253 253 253 253 253 253 253 254 255 257 258 258 259
260 260 260 260 260 260 260 259 259 258 258 258 258 258 258 257 257 257 256 256 256 256 256 256 255 255 255 255 255 255 255 255 255 255 255 255 255 255 256 257 258 259
259 259 259 259 259 259 259 260 260 259 259 259 259 258 258 259 258 258 258 258 258 258 258 258 258 257 257 257 257 257 257 257 257 257 257 258 258 258 258 258 258 259
259 259 259 258 258 259 259 259 259 259 259 259 259 259 259 259 259 259 260 260 260 260 260 260 260 260 260 260 260 260 260 260 260 260 260 260 260 260 260 260 260 261
260 259 259 258 258 258 258 259 259 259 259 259 259 259 259 259 260 260 261 261 261 261 262 262 262 262 262 262 262 262 262 262 262 262 262 262 262 262 262 262 262 262
260 260 260 259 259 259 259 259 259 259 260 260 260 260 260 260 261 261 261 262 262 262 262 263 263 263 263 264 264 264 264 264 264 264 264 264 264 264 264 264 264 264
261 261 261 261 260 260 260 260 260 260 261 261 261 261 261 262 262 262 263 263 263 263 263 263 264 264 264 264 264 265 265 265 265 265 265 265 266 266 266 265 265 265
261 262 262 262 262 262 262 262 262 262 262 262 262 262 263 263 263 263 264 264 264 265 265 265 264 264 265 265 265 265 265 265 265 265 266 266 266 266 266 266 266 265
262 262 262 263 263 263 263 263 263 263 263 263 263 263 263 263 264 264 265 265 265 266 266 266 266 265 265 265 265 265 265 265 265 265 266 266 266 266 266 266 266 266
263 263 263 263 263 263 263 263 264 264 264 264 264 264 264 264 264 265 265 265 266 266 266 267 267 267 266 266 266 266 265 265 265 265 265 265 265 265 266 265 265 265
265 265 264 264 264 264 264 264 264 265 265 265 265 265 265 266 266 266 266 266 266 266 266 267 267 267 267 267 267 267 266 266 266 265 265 265 265 265 265 265 265 265
267 267 266 266 266 266 266 266 266 266 266 266 266 267 267 267 267 268 268 268 267 267 267 267 267 267 267 267 267 267 267 267 266 266 265 265 265 265 265 265 265 265
269 269 268 268 268 268 268 268 268 268 267 267 268 268 268 268 268 268 268 268 268 268 268 268 268 268 268 267 267 267 267 267 267 266 266 266 265 265 265 265 265 265
271 271 271 270 270 270 269 269 269 269 268 268 268 268 268 268 268 268 268 268 267 267 267 267 267 268 268 268 268 268 267 267 267 267 266 266 266 266 266 266 266 266
272 272 272 271 271 271 271 270 270 270 270 269 269 269 269 268 268 268 268 268 268 268 267 267 267 267 267 268 268 268 268 268 267 267 267 267 267 267 266 266 267 266
273 273 272 272 272 272 272 271 271 271 271 271 270 270 270 270 270 269 269 269 269 269 269 269 268 268 268 268 268 269 269 268 268 268 268 268 267 267 267 267 267 267
272 272 272 272 272 272 271 271 271 271 271 271 271 271 271 271 271 271 271 271 271 270 270 270 270 270 269 269 269 269 269 269 269 269 268 268 268 268 268 268 268 268